| time (UTC) | temp F | wind direction | speed MPH | gust MPH | rain 1hr in | rain 24hr in | rain mn in | humidity % | barometer mb |
| 20260831054628 | 67 | 65 | 6.0 | 15.0 | 0.00 | 0.00 | 0.00 | 92 | 949.6 |
| 20260831054127 | 67 | 89 | 3.0 | 16.0 | 0.00 | 0.00 | 0.00 | 93 | 949.5 |
| 20260831053626 | 68 | 100 | 5.0 | 16.0 | 0.00 | 0.00 | 0.00 | 93 | 949.1 |
| 20260831053125 | 68 | 78 | 4.0 | 12.0 | 0.00 | 0.00 | 0.00 | 93 | 948.9 |
| 20260831052624 | 68 | 66 | 4.0 | 13.0 | 0.00 | 0.00 | 0.00 | 94 | 949.2 |
| 20260831052123 | 68 | 102 | 5.0 | 13.0 | 0.00 | 0.00 | 0.00 | 94 | 949.0 |
| 20260831051622 | 68 | 95 | 3.0 | 12.0 | 0.00 | 0.00 | 0.00 | 93 | 949.0 |
| 20260831051120 | 68 | 83 | 3.0 | 12.0 | 0.00 | 0.00 | 0.00 | 92 | 948.7 |
| 20260831050619 | 67 | 80 | 5.0 | 13.0 | 0.00 | 0.00 | 0.00 | 92 | 948.8 |
| 20260831050118 | 68 | 68 | 5.0 | 13.0 | 0.00 | 0.00 | 0.00 | 92 | 948.6 |
| 20260831045616 | 68 | 65 | 3.0 | 12.0 | 0.00 | 0.00 | 0.00 | 92 | 949.1 |
| 20260831045115 | 68 | 82 | 4.0 | 12.0 | 0.00 | 0.00 | 0.00 | 92 | 949.0 |
| 20260831044614 | 68 | 74 | 5.0 | 12.0 | 0.00 | 0.00 | 0.00 | 91 | 948.9 |
| 20260831043557 | 68 | 89 | 2.0 | 13.0 | 0.00 | 0.00 | 0.00 | 91 | 949.0 |
| 20260831043056 | 68 | 78 | 3.0 | 13.0 | 0.00 | 0.00 | 0.00 | 89 | 949.2 |
| 20260831042555 | 68 | 97 | 3.0 | 13.0 | 0.00 | 0.00 | 0.00 | 90 | 949.1 |
| 20260831042054 | 69 | 80 | 3.0 | 15.0 | 0.00 | 0.00 | 0.00 | 89 | 949.0 |
| 20260831041553 | 69 | 68 | 4.0 | 15.0 | 0.00 | 0.00 | 0.00 | 88 | 948.9 |
| 20260831041052 | 69 | 59 | 4.0 | 15.0 | 0.00 | 0.00 | 0.00 | 87 | 948.9 |
| 20260831040551 | 69 | 40 | 5.0 | 15.0 | 0.00 | 0.00 | 0.00 | 86 | 949.0 |
| 20260831040050 | 70 | 40 | 5.0 | 15.0 | 0.00 | 0.00 | 0.00 | 85 | 948.8 |
| 20260831034517 | 71 | 57 | 5.0 | 19.0 | 0.00 | 0.00 | 0.00 | 84 | 948.6 |
| 20260831034016 | 71 | 43 | 6.0 | 19.0 | 0.00 | 0.00 | 0.00 | 84 | 948.4 |
| 20260831033514 | 71 | 55 | 5.0 | 12.0 | 0.00 | 0.00 | 0.00 | 82 | 948.3 |
| 20260831032457 | 72 | 41 | 7.0 | 15.0 | 0.00 | 0.00 | 0.00 | 81 | 948.2 |
| 20260831031956 | 72 | 47 | 6.0 | 14.0 | 0.00 | 0.00 | 0.00 | 82 | 948.2 |
| 20260831031455 | 72 | 51 | 8.0 | 13.0 | 0.00 | 0.00 | 0.00 | 80 | 948.1 |
| 20260831030954 | 73 | 54 | 7.0 | 16.0 | 0.00 | 0.00 | 0.00 | 81 | 948.3 |
| 20260831025937 | 73 | 46 | 7.0 | 16.0 | 0.00 | 0.00 | 0.00 | 80 | 948.2 |
| 20260831025436 | 73 | 45 | 8.0 | 16.0 | 0.00 | 0.00 | 0.00 | 79 | 948.2 |
| 20260831024935 | 73 | 39 | 7.0 | 15.0 | 0.00 | 0.00 | 0.00 | 78 | 948.2 |
| 20260831024434 | 74 | 43 | 8.0 | 16.0 | 0.00 | 0.00 | 0.00 | 78 | 948.0 |
| 20260831023933 | 74 | 47 | 7.0 | 16.0 | 0.00 | 0.00 | 0.00 | 78 | 947.8 |
| 20260831023432 | 75 | 55 | 6.0 | 14.0 | 0.00 | 0.00 | 0.00 | 78 | 948.3 |
| 20260831022931 | 75 | 58 | 4.0 | 14.0 | 0.00 | 0.00 | 0.00 | 79 | 947.9 |
| 20260831022430 | 75 | 70 | 5.0 | 14.0 | 0.00 | 0.00 | 0.00 | 79 | 948.2 |
| 20260831021929 | 75 | 60 | 6.0 | 14.0 | 0.00 | 0.00 | 0.00 | 79 | 948.2 |
| 20260831021428 | 75 | 58 | 6.0 | 14.0 | 0.00 | 0.00 | 0.00 | 78 | 948.3 |
| 20260831020927 | 75 | 58 | 6.0 | 14.0 | 0.00 | 0.00 | 0.00 | 79 | 948.1 |
| 20260831020426 | 75 | 52 | 6.0 | 13.0 | 0.00 | 0.00 | 0.00 | 78 | 948.3 |
| 20260831015925 | 75 | 63 | 5.0 | 13.0 | 0.00 | 0.00 | 0.00 | 77 | 948.5 |
| 20260831015424 | 75 | 52 | 5.0 | 13.0 | 0.00 | 0.00 | 0.00 | 77 | 948.4 |
| 20260831014923 | 75 | 47 | 6.0 | 13.0 | 0.00 | 0.00 | 0.00 | 77 | 948.7 |
| 20260831014422 | 75 | 42 | 6.0 | 13.0 | 0.00 | 0.00 | 0.00 | 75 | 948.5 |
| 20260831013921 | 75 | 54 | 5.0 | 13.0 | 0.00 | 0.00 | 0.00 | 77 | 948.3 |
| 20260831013419 | 75 | 51 | 5.0 | 15.0 | 0.00 | 0.00 | 0.00 | 76 | 948.4 |
| 20260831012918 | 75 | 51 | 6.0 | 15.0 | 0.00 | 0.00 | 0.00 | 77 | 948.6 |
| 20260831012417 | 75 | 49 | 6.0 | 14.0 | 0.00 | 0.00 | 0.00 | 77 | 948.5 |
| 20260831011916 | 76 | 47 | 7.0 | 16.0 | 0.00 | 0.00 | 0.00 | 77 | 948.7 |
| 20260831011415 | 76 | 61 | 5.0 | 16.0 | 0.00 | 0.00 | 0.00 | 78 | 948.7 |
| 20260831010913 | 76 | 38 | 6.0 | 12.0 | 0.00 | 0.00 | 0.00 | 77 | 948.7 |
| 20260831010411 | 76 | 51 | 5.0 | 12.0 | 0.00 | 0.00 | 0.00 | 78 | 949.0 |
| 20260831005910 | 76 | 53 | 5.0 | 13.0 | 0.00 | 0.00 | 0.00 | 79 | 948.8 |
| 20260831005409 | 76 | 51 | 6.0 | 13.0 | 0.00 | 0.00 | 0.00 | 77 | 948.9 |
| 20260831004908 | 76 | 44 | 6.0 | 13.0 | 0.00 | 0.00 | 0.00 | 77 | 948.7 |
| 20260831003851 | 76 | 54 | 6.0 | 15.0 | 0.00 | 0.00 | 0.00 | 75 | 949.1 |
| 20260831002833 | 77 | 65 | 5.0 | 15.0 | 0.00 | 0.00 | 0.00 | 76 | 949.0 |
| 20260831001259 | 76 | 47 | 6.0 | 13.0 | 0.00 | 0.00 | 0.00 | 75 | 949.3 |
| 20260831000758 | 77 | 52 | 6.0 | 12.0 | 0.00 | 0.00 | 0.00 | 75 | 948.9 |
| 20260831000257 | 77 | 44 | 6.0 | 12.0 | 0.00 | 0.00 | 0.00 | 75 | 949.1 |
| 20260830235756 | 77 | 46 | 5.0 | 12.0 | 0.00 | 0.00 | 0.00 | 76 | 949.4 |
| 20260830234739 | 77 | 47 | 4.0 | 12.0 | 0.00 | 0.00 | 0.00 | 75 | 949.5 |
| 20260830234238 | 77 | 64 | 6.0 | 12.0 | 0.00 | 0.00 | 0.00 | 71 | 949.6 |
| 20260830233737 | 77 | 58 | 4.0 | 12.0 | 0.00 | 0.00 | 0.00 | 74 | 949.8 |
| 20260830232720 | 77 | 52 | 4.0 | 11.0 | 0.00 | 0.00 | 0.00 | 73 | 950.1 |
| 20260830232219 | 77 | 65 | 3.0 | 11.0 | 0.00 | 0.00 | 0.00 | 75 | 949.8 |
| 20260830231202 | 77 | 58 | 5.0 | 12.0 | 0.00 | 0.00 | 0.00 | 73 | 949.7 |
| 20260830230701 | 77 | 62 | 4.0 | 12.0 | 0.00 | 0.00 | 0.00 | 74 | 949.8 |
| 20260830230200 | 77 | 57 | 4.0 | 13.0 | 0.00 | 0.00 | 0.00 | 74 | 950.2 |
| 20260830225659 | 77 | 48 | 6.0 | 13.0 | 0.00 | 0.00 | 0.00 | 75 | 949.8 |
| 20260830224641 | 76 | 40 | 4.0 | 12.0 | 0.00 | 0.00 | 0.00 | 78 | 950.2 |
| 20260830224140 | 76 | 48 | 6.0 | 13.0 | 0.00 | 0.00 | 0.00 | 75 | 950.0 |
| 20260830223639 | 76 | 43 | 6.0 | 13.0 | 0.00 | 0.00 | 0.00 | 77 | 950.0 |
| 20260830223137 | 77 | 58 | 5.0 | 12.0 | 0.00 | 0.00 | 0.00 | 77 | 950.2 |
| 20260830222636 | 76 | 46 | 5.0 | 12.0 | 0.00 | 0.00 | 0.00 | 76 | 950.5 |
| 20260830222135 | 76 | 58 | 5.0 | 12.0 | 0.00 | 0.00 | 0.00 | 77 | 950.1 |
| 20260830221634 | 76 | 47 | 8.0 | 15.0 | 0.00 | 0.00 | 0.00 | 77 | 950.4 |
| 20260830221133 | 76 | 58 | 6.0 | 15.0 | 0.00 | 0.00 | 0.00 | 77 | 950.2 |
| 20260830220633 | 76 | 46 | 7.0 | 15.0 | 0.00 | 0.00 | 0.00 | 75 | 950.4 |
| 20260830220130 | 76 | 66 | 6.0 | 15.0 | 0.00 | 0.00 | 0.00 | 75 | 950.4 |
| 20260830215629 | 76 | 58 | 6.0 | 15.0 | 0.00 | 0.00 | 0.00 | 78 | 950.7 |
| 20260830215129 | 76 | 58 | 6.0 | 15.0 | 0.00 | 0.00 | 0.00 | 78 | 950.6 |
| 20260830214627 | 76 | 66 | 7.0 | 16.0 | 0.00 | 0.00 | 0.00 | 78 | 950.4 |
| 20260830213609 | 76 | 58 | 6.0 | 15.0 | 0.00 | 0.00 | 0.00 | 79 | 950.4 |
| 20260830212553 | 75 | 72 | 5.0 | 15.0 | 0.00 | 0.00 | 0.00 | 81 | 950.7 |
| 20260830212051 | 75 | 61 | 5.0 | 16.0 | 0.00 | 0.00 | 0.00 | 80 | 950.9 |
| 20260830211035 | 74 | 69 | 6.0 | 16.0 | 0.00 | 0.00 | 0.00 | 82 | 950.4 |
| 20260830210018 | 73 | 73 | 7.0 | 16.0 | 0.00 | 0.00 | 0.00 | 84 | 950.7 |
| 20260830205516 | 74 | 68 | 6.0 | 16.0 | 0.00 | 0.00 | 0.00 | 83 | 951.0 |
| 20260830205015 | 73 | 76 | 6.0 | 12.0 | 0.00 | 0.00 | 0.00 | 86 | 950.6 |
| 20260830203958 | 73 | 65 | 6.0 | 15.0 | 0.00 | 0.00 | 0.00 | 86 | 950.7 |
| 20260830203458 | 73 | 81 | 7.0 | 15.0 | 0.00 | 0.00 | 0.00 | 84 | 950.8 |
| 20260830202956 | 72 | 74 | 6.0 | 14.0 | 0.00 | 0.00 | 0.00 | 87 | 950.8 |
| 20260830202456 | 72 | 63 | 5.0 | 14.0 | 0.00 | 0.00 | 0.00 | 89 | 950.9 |
| 20260830201953 | 72 | 65 | 5.0 | 14.0 | 0.00 | 0.00 | 0.00 | 87 | 950.7 |
| 20260830201453 | 72 | 57 | 4.0 | 14.0 | 0.00 | 0.00 | 0.00 | 88 | 950.7 |
| 20260830200952 | 73 | 64 | 5.0 | 14.0 | 0.00 | 0.00 | 0.00 | 86 | 950.7 |
| 20260830200451 | 73 | 65 | 5.0 | 14.0 | 0.00 | 0.00 | 0.00 | 85 | 950.5 |
| 20260830195948 | 73 | 64 | 5.0 | 16.0 | 0.00 | 0.00 | 0.00 | 83 | 950.7 |
| 20260830195447 | 73 | 54 | 5.0 | 18.0 | 0.00 | 0.00 | 0.00 | 85 | 950.8 |
| 20260830194946 | 73 | 60 | 6.0 | 18.0 | 0.00 | 0.00 | 0.00 | 84 | 950.8 |
| 20260830194446 | 72 | 54 | 6.0 | 16.0 | 0.00 | 0.00 | 0.00 | 85 | 950.5 |
| 20260830193944 | 72 | 48 | 5.0 | 16.0 | 0.00 | 0.00 | 0.00 | 85 | 950.6 |
| 20260830193444 | 72 | 60 | 5.0 | 16.0 | 0.00 | 0.00 | 0.00 | 85 | 950.2 |
| 20260830192942 | 72 | 55 | 5.0 | 13.0 | 0.00 | 0.00 | 0.00 | 85 | 950.6 |
| 20260830192441 | 72 | 51 | 5.0 | 13.0 | 0.00 | 0.00 | 0.00 | 86 | 950.8 |
| 20260830191941 | 72 | 53 | 5.0 | 13.0 | 0.00 | 0.00 | 0.00 | 86 | 950.4 |
| 20260830191440 | 72 | 57 | 5.0 | 13.0 | 0.00 | 0.00 | 0.00 | 85 | 950.4 |
| 20260830190939 | 72 | 58 | 4.0 | 13.0 | 0.00 | 0.00 | 0.00 | 86 | 950.4 |
| 20260830185406 | 70 | 54 | 5.0 | 13.0 | 0.00 | 0.00 | 0.00 | 87 | 950.4 |
| 20260830184904 | 70 | 56 | 6.0 | 13.0 | 0.00 | 0.00 | 0.00 | 88 | 950.6 |
| 20260830184403 | 70 | 52 | 6.0 | 13.0 | 0.00 | 0.00 | 0.00 | 88 | 950.7 |
| 20260830183347 | 69 | 45 | 5.0 | 13.0 | 0.00 | 0.00 | 0.00 | 90 | 950.5 |
| 20260830182846 | 69 | 44 | 5.0 | 13.0 | 0.00 | 0.00 | 0.00 | 91 | 950.5 |
| 20260830182345 | 68 | 46 | 4.0 | 13.0 | 0.00 | 0.00 | 0.00 | 92 | 950.5 |
| 20260830181844 | 68 | 42 | 5.0 | 13.0 | 0.00 | 0.00 | 0.00 | 91 | 950.5 |
| 20260830181342 | 68 | 45 | 6.0 | 13.0 | 0.00 | 0.00 | 0.00 | 90 | 950.2 |
| 20260830180841 | 68 | 45 | 5.0 | 13.0 | 0.00 | 0.00 | 0.00 | 89 | 950.4 |
| 20260830180340 | 68 | 48 | 5.0 | 13.0 | 0.00 | 0.00 | 0.00 | 89 | 950.2 |
| 20260830175839 | 68 | 55 | 4.0 | 13.0 | 0.00 | 0.00 | 0.00 | 90 | 950.2 |
| 20260830175337 | 68 | 53 | 5.0 | 12.0 | 0.00 | 0.00 | 0.00 | 89 | 950.1 |
| 20260830174836 | 68 | 51 | 5.0 | 12.0 | 0.00 | 0.00 | 0.00 | 91 | 950.2 |
| 20260830174335 | 68 | 50 | 4.0 | 12.0 | 0.00 | 0.00 | 0.00 | 91 | 950.0 |
| 20260830173834 | 68 | 55 | 4.0 | 12.0 | 0.00 | 0.00 | 0.00 | 90 | 949.8 |
| 20260830172817 | 67 | 49 | 3.0 | 12.0 | 0.00 | 0.00 | 0.00 | 92 | 949.8 |
| 20260830172316 | 66 | 44 | 5.0 | 12.0 | 0.00 | 0.00 | 0.00 | 93 | 949.9 |
| 20260830171815 | 66 | 42 | 4.0 | 12.0 | 0.00 | 0.00 | 0.00 | 93 | 949.7 |
| 20260830171314 | 66 | 42 | 4.0 | 12.0 | 0.00 | 0.00 | 0.00 | 91 | 950.1 |
| 20260830170813 | 66 | 45 | 5.0 | 12.0 | 0.00 | 0.00 | 0.00 | 91 | 949.6 |
| 20260830170312 | 65 | 47 | 6.0 | 12.0 | 0.00 | 0.00 | 0.00 | 91 | 949.8 |
| 20260830165811 | 65 | 53 | 4.0 | 12.0 | 0.00 | 0.00 | 0.00 | 92 | 949.7 |
| 20260830165309 | 65 | 46 | 5.0 | 12.0 | 0.00 | 0.00 | 0.00 | 92 | 949.4 |
| 20260830164808 | 65 | 53 | 4.0 | 12.0 | 0.00 | 0.00 | 0.00 | 92 | 949.6 |
| 20260830164307 | 64 | 49 | 5.0 | 12.0 | 0.00 | 0.00 | 0.00 | 92 | 949.4 |
| 20260830163806 | 64 | 50 | 3.0 | 12.0 | 0.00 | 0.00 | 0.00 | 92 | 949.6 |
| 20260830163305 | 64 | 40 | 4.0 | 12.0 | 0.00 | 0.00 | 0.00 | 92 | 949.5 |
| 20260830162804 | 64 | 37 | 4.0 | 12.0 | 0.00 | 0.00 | 0.00 | 92 | 949.5 |
| 20260830161747 | 64 | 39 | 4.0 | 12.0 | 0.00 | 0.00 | 0.00 | 91 | 949.2 |
| 20260830161246 | 64 | 46 | 4.0 | 12.0 | 0.00 | 0.00 | 0.00 | 92 | 949.1 |
| 20260830160745 | 65 | 44 | 5.0 | 12.0 | 0.00 | 0.00 | 0.00 | 92 | 949.2 |
| 20260830160244 | 65 | 42 | 4.0 | 12.0 | 0.00 | 0.00 | 0.00 | 93 | 949.2 |
| 20260830155227 | 65 | 42 | 4.0 | 12.0 | 0.00 | 0.00 | 0.00 | 93 | 949.3 |
| 20260830154725 | 65 | 40 | 4.0 | 12.0 | 0.00 | 0.00 | 0.00 | 93 | 949.2 |
| 20260830154224 | 65 | 44 | 5.0 | 12.0 | 0.00 | 0.00 | 0.00 | 93 | 949.2 |
| 20260830153723 | 65 | 43 | 5.0 | 12.0 | 0.00 | 0.00 | 0.00 | 94 | 949.0 |
| 20260830153222 | 65 | 44 | 6.0 | 12.0 | 0.00 | 0.00 | 0.00 | 94 | 949.1 |
| 20260830152721 | 64 | 48 | 3.0 | 12.0 | 0.00 | 0.00 | 0.00 | 94 | 949.1 |
| 20260830152219 | 64 | 48 | 4.0 | 12.0 | 0.00 | 0.00 | 0.00 | 94 | 949.1 |
| 20260830151718 | 64 | 47 | 4.0 | 12.0 | 0.00 | 0.00 | 0.00 | 94 | 948.9 |
| 20260830151217 | 64 | 50 | 4.0 | 12.0 | 0.00 | 0.00 | 0.00 | 93 | 948.8 |
| 20260830150716 | 64 | 49 | 4.0 | 12.0 | 0.00 | 0.00 | 0.00 | 93 | 948.8 |
| 20260830150215 | 64 | 54 | 3.0 | 12.0 | 0.00 | 0.00 | 0.00 | 93 | 948.5 |
| 20260830145158 | 65 | 49 | 3.0 | 12.0 | 0.00 | 0.00 | 0.00 | 94 | 949.0 |
| 20260830144657 | 65 | 50 | 4.0 | 12.0 | 0.00 | 0.00 | 0.00 | 94 | 948.8 |
| 20260830143639 | 64 | 55 | 4.0 | 12.0 | 0.00 | 0.00 | 0.00 | 93 | 948.8 |
| 20260830143138 | 64 | 55 | 4.0 | 12.0 | 0.00 | 0.00 | 0.00 | 93 | 948.6 |
| 20260830142637 | 64 | 54 | 5.0 | 14.0 | 0.00 | 0.00 | 0.00 | 94 | 948.5 |
| 20260830142135 | 64 | 56 | 4.0 | 14.0 | 0.00 | 0.00 | 0.00 | 93 | 948.5 |
| 20260830141634 | 64 | 51 | 6.0 | 14.0 | 0.00 | 0.00 | 0.00 | 93 | 948.6 |
| 20260830141133 | 64 | 49 | 5.0 | 14.0 | 0.00 | 0.00 | 0.00 | 93 | 948.2 |
| 20260830140632 | 64 | 57 | 4.0 | 14.0 | 0.00 | 0.00 | 0.00 | 92 | 948.4 |
| 20260830140131 | 64 | 47 | 5.0 | 14.0 | 0.00 | 0.00 | 0.00 | 93 | 948.6 |
| 20260830135630 | 64 | 53 | 3.0 | 13.0 | 0.00 | 0.00 | 0.00 | 92 | 948.5 |
| 20260830135129 | 64 | 49 | 4.0 | 13.0 | 0.00 | 0.00 | 0.00 | 93 | 948.4 |
| 20260830134112 | 64 | 53 | 5.0 | 14.0 | 0.00 | 0.00 | 0.00 | 92 | 948.1 |
| 20260830133611 | 64 | 54 | 5.0 | 14.0 | 0.00 | 0.00 | 0.00 | 92 | 948.1 |
| 20260830133110 | 64 | 55 | 5.0 | 14.0 | 0.00 | 0.00 | 0.00 | 92 | 948.2 |
| 20260830132609 | 64 | 48 | 5.0 | 14.0 | 0.00 | 0.00 | 0.00 | 92 | 948.1 |
| 20260830132108 | 64 | 55 | 5.0 | 14.0 | 0.00 | 0.00 | 0.00 | 92 | 948.0 |
| 20260830131607 | 64 | 57 | 6.0 | 14.0 | 0.00 | 0.00 | 0.00 | 92 | 948.3 |
| 20260830131105 | 64 | 57 | 6.0 | 13.0 | 0.00 | 0.00 | 0.00 | 92 | 948.3 |
| 20260830130604 | 64 | 52 | 5.0 | 16.0 | 0.00 | 0.00 | 0.00 | 92 | 948.1 |
| 20260830125602 | 64 | 65 | 5.0 | 18.0 | 0.00 | 0.00 | 0.00 | 92 | 948.4 |
| 20260830125101 | 64 | 55 | 6.0 | 14.0 | 0.00 | 0.00 | 0.00 | 92 | 948.3 |
| 20260830124600 | 64 | 56 | 6.0 | 14.0 | 0.00 | 0.00 | 0.00 | 92 | 948.3 |
| 20260830124059 | 64 | 64 | 6.0 | 13.0 | 0.00 | 0.00 | 0.00 | 92 | 948.0 |
| 20260830123558 | 64 | 59 | 5.0 | 13.0 | 0.00 | 0.00 | 0.00 | 91 | 948.1 |
| 20260830123057 | 64 | 60 | 5.0 | 13.0 | 0.00 | 0.00 | 0.00 | 91 | 948.6 |
| 20260830122556 | 65 | 63 | 6.0 | 13.0 | 0.00 | 0.00 | 0.00 | 91 | 948.8 |
| 20260830122055 | 65 | 53 | 4.0 | 13.0 | 0.00 | 0.00 | 0.00 | 91 | 948.7 |
| 20260830121554 | 65 | 56 | 5.0 | 13.0 | 0.00 | 0.00 | 0.00 | 91 | 948.9 |
| 20260830121052 | 65 | 54 | 5.0 | 14.0 | 0.00 | 0.00 | 0.00 | 92 | 948.7 |
| 20260830115519 | 65 | 72 | 6.0 | 14.0 | 0.00 | 0.00 | 0.00 | 92 | 948.7 |
| 20260830115018 | 65 | 73 | 5.0 | 14.0 | 0.00 | 0.00 | 0.00 | 91 | 948.6 |
| 20260830114517 | 65 | 78 | 7.0 | 14.0 | 0.00 | 0.00 | 0.00 | 91 | 948.4 |
| 20260830113459 | 66 | 78 | 6.0 | 18.0 | 0.00 | 0.00 | 0.00 | 92 | 948.5 |
| 20260830112958 | 66 | 64 | 7.0 | 18.0 | 0.00 | 0.00 | 0.00 | 92 | 948.7 |
| 20260830112457 | 66 | 61 | 5.0 | 12.0 | 0.00 | 0.00 | 0.00 | 93 | 948.6 |
| 20260830111956 | 66 | 50 | 3.0 | 12.0 | 0.00 | 0.00 | 0.00 | 93 | 948.6 |
| 20260830111455 | 66 | 74 | 5.0 | 14.0 | 0.00 | 0.00 | 0.00 | 92 | 948.5 |
| 20260830110954 | 66 | 79 | 4.0 | 19.0 | 0.00 | 0.00 | 0.00 | 92 | 948.8 |
| 20260830110453 | 66 | 75 | 9.0 | 19.0 | 0.00 | 0.00 | 0.00 | 92 | 948.8 |
| 20260830105952 | 66 | 76 | 6.0 | 15.0 | 0.00 | 0.00 | 0.00 | 93 | 948.4 |
| 20260830105451 | 66 | 77 | 6.0 | 13.0 | 0.00 | 0.00 | 0.00 | 93 | 948.7 |
| 20260830104434 | 66 | 77 | 6.0 | 18.0 | 0.00 | 0.00 | 0.00 | 93 | 948.8 |
| 20260830103933 | 66 | 75 | 6.0 | 18.0 | 0.00 | 0.00 | 0.00 | 94 | 948.6 |
| 20260830103432 | 66 | 66 | 6.0 | 18.0 | 0.00 | 0.00 | 0.00 | 93 | 948.6 |
| 20260830102931 | 66 | 66 | 6.0 | 16.0 | 0.00 | 0.00 | 0.00 | 92 | 949.2 |
| 20260830102430 | 66 | 66 | 6.0 | 16.0 | 0.00 | 0.00 | 0.00 | 93 | 949.1 |
| 20260830101929 | 66 | 71 | 7.0 | 15.0 | 0.00 | 0.00 | 0.00 | 93 | 949.0 |
| 20260830101428 | 66 | 61 | 8.0 | 15.0 | 0.00 | 0.00 | 0.00 | 93 | 949.0 |
| 20260830100927 | 66 | 67 | 5.0 | 19.0 | 0.00 | 0.00 | 0.00 | 93 | 949.0 |
| 20260830100426 | 66 | 70 | 8.0 | 19.0 | 0.00 | 0.00 | 0.00 | 93 | 949.1 |
| 20260830095925 | 66 | 69 | 6.0 | 19.0 | 0.00 | 0.00 | 0.00 | 94 | 949.2 |
| 20260830095424 | 66 | 63 | 6.0 | 19.0 | 0.00 | 0.00 | 0.00 | 94 | 949.3 |
| 20260830094923 | 66 | 64 | 6.0 | 13.0 | 0.00 | 0.00 | 0.00 | 94 | 949.2 |
| 20260830094422 | 66 | 66 | 7.0 | 21.0 | 0.00 | 0.00 | 0.00 | 93 | 949.2 |
| 20260830093921 | 66 | 68 | 7.0 | 21.0 | 0.00 | 0.00 | 0.00 | 93 | 949.2 |
| 20260830093420 | 66 | 70 | 7.0 | 15.0 | 0.00 | 0.00 | 0.00 | 92 | 949.5 |
| 20260830092919 | 66 | 68 | 7.0 | 20.0 | 0.00 | 0.00 | 0.00 | 93 | 949.5 |
| 20260830092418 | 66 | 69 | 7.0 | 20.0 | 0.00 | 0.00 | 0.00 | 92 | 949.3 |
| 20260830091917 | 66 | 74 | 7.0 | 15.0 | 0.00 | 0.00 | 0.00 | 93 | 949.2 |
| 20260830091416 | 66 | 70 | 8.0 | 18.0 | 0.00 | 0.00 | 0.00 | 92 | 949.3 |
| 20260830090915 | 66 | 67 | 7.0 | 18.0 | 0.00 | 0.00 | 0.00 | 93 | 949.4 |
| 20260830090414 | 66 | 70 | 6.0 | 16.0 | 0.00 | 0.00 | 0.00 | 93 | 949.3 |
| 20260830084841 | 66 | 61 | 7.0 | 15.0 | 0.00 | 0.00 | 0.00 | 93 | 949.5 |
| 20260830084340 | 66 | 55 | 7.0 | 15.0 | 0.00 | 0.00 | 0.00 | 92 | 949.3 |
| 20260830083323 | 66 | 65 | 8.0 | 18.0 | 0.00 | 0.00 | 0.00 | 92 | 949.3 |
| 20260830082822 | 66 | 66 | 7.0 | 18.0 | 0.00 | 0.00 | 0.00 | 92 | 949.7 |
| 20260830082321 | 66 | 54 | 6.0 | 18.0 | 0.00 | 0.00 | 0.00 | 93 | 949.5 |
| 20260830081820 | 66 | 66 | 7.0 | 16.0 | 0.00 | 0.00 | 0.00 | 93 | 949.7 |
| 20260830081319 | 66 | 57 | 7.0 | 15.0 | 0.00 | 0.00 | 0.00 | 93 | 949.6 |
| 20260830080302 | 66 | 65 | 6.0 | 18.0 | 0.00 | 0.00 | 0.00 | 94 | 949.6 |
| 20260830075801 | 66 | 55 | 5.0 | 20.0 | 0.00 | 0.00 | 0.00 | 93 | 949.4 |
| 20260830075300 | 67 | 61 | 7.0 | 20.0 | 0.00 | 0.00 | 0.00 | 93 | 949.5 |
| 20260830074759 | 67 | 60 | 7.0 | 18.0 | 0.00 | 0.00 | 0.00 | 93 | 949.2 |
| 20260830074258 | 67 | 66 | 7.0 | 19.0 | 0.00 | 0.00 | 0.00 | 94 | 949.1 |
| 20260830073757 | 67 | 68 | 8.0 | 19.0 | 0.00 | 0.00 | 0.00 | 94 | 949.0 |
| 20260830073256 | 67 | 70 | 6.0 | 16.0 | 0.00 | 0.00 | 0.00 | 95 | 949.1 |
| 20260830072754 | 67 | 67 | 6.0 | 16.0 | 0.00 | 0.00 | 0.00 | 95 | 949.0 |
| 20260830072252 | 67 | 60 | 8.0 | 20.0 | 0.00 | 0.00 | 0.00 | 95 | 948.4 |
| 20260830071751 | 67 | 65 | 6.0 | 20.0 | 0.00 | 0.00 | 0.00 | 94 | 948.9 |
| 20260830071250 | 67 | 60 | 8.0 | 20.0 | 0.00 | 0.00 | 0.00 | 95 | 948.7 |
| 20260830070749 | 67 | 66 | 6.0 | 18.0 | 0.00 | 0.00 | 0.00 | 95 | 948.9 |
| 20260830070248 | 67 | 64 | 9.0 | 18.0 | 0.00 | 0.00 | 0.00 | 95 | 948.7 |
| 20260830065231 | 67 | 68 | 8.0 | 15.0 | 0.00 | 0.00 | 0.00 | 95 | 948.6 |
| 20260830064730 | 67 | 63 | 7.0 | 15.0 | 0.00 | 0.00 | 0.00 | 96 | 948.6 |
| 20260830064230 | 67 | 64 | 7.0 | 15.0 | 0.00 | 0.00 | 0.00 | 96 | 948.5 |
| 20260830063728 | 67 | 62 | 5.0 | 14.0 | 0.00 | 0.00 | 0.00 | 96 | 948.5 |
| 20260830063227 | 67 | 61 | 6.0 | 15.0 | 0.00 | 0.00 | 0.00 | 95 | 948.3 |
| 20260830062726 | 67 | 60 | 6.0 | 15.0 | 0.00 | 0.00 | 0.00 | 95 | 948.4 |
| 20260830062225 | 67 | 52 | 6.0 | 14.0 | 0.00 | 0.00 | 0.00 | 94 | 948.3 |
| 20260830061724 | 66 | 63 | 6.0 | 18.0 | 0.00 | 0.00 | 0.00 | 94 | 948.2 |
| 20260830061224 | 66 | 64 | 7.0 | 18.0 | 0.00 | 0.00 | 0.00 | 94 | 948.5 |
| 20260830060722 | 66 | 57 | 6.0 | 14.0 | 0.00 | 0.00 | 0.00 | 94 | 948.2 |
| 20260830060221 | 66 | 48 | 7.0 | 13.0 | 0.00 | 0.00 | 0.00 | 94 | 948.4 |
| 20260830055720 | 66 | 58 | 4.0 | 13.0 | 0.00 | 0.00 | 0.00 | 94 | 948.0 |
| 20260830055220 | 66 | 63 | 7.0 | 16.0 | 0.00 | 0.00 | 0.00 | 94 | 948.1 |